THOR ABLESTAR DEB, 5826

Orbit data source: Space-Track

THOR ABLESTAR DEB, 5826 is space debris in LEO originally from a launch on Thu, 29 Jun 1961 UTC launched from the Air Force Eastern Test Range (AFETR). Debris objects in space refer to the collection of defunct objects orbiting the Earth. Examples of debris include non-operational satellites, rocket bodies, and fragments generated from explosions, collisions, or faulty payload assembly.

Loading next visibility...
Identifier
5826, 1961-015KE
Orbit
LEO
Country
Flag of USUS
Related business
Manufacturer
Unknown
Mission
Spacecraft
Bus & Motor
Unknown
Mass
Unknown
Launch date (UTC)
1961-06-29 (65 years ago)
Launch vehicle
Unknown
Launch site
Air Force Eastern Test Range (AFETR)
Object type
Payload
Rocket body
Debris
Shape & HBR
Unknown shape, 0.1 m
Radar Cross Section
Medium (>0.1 m² and <1 m²)

Expand to show TLE details & history
Last TLE update: 3 days ago

TLE from 3 days ago
0 THOR ABLESTAR DEB
1 05826U 61015KE  26170.81472534  .00000422  00000-0  34514-3 0  9992
2 05826  66.6802 306.6046 0081896 259.6088  99.5755 13.97583628271097
Epoch: 2026-06-19T19:33Z
TLE epoch observation values (Epoch: 2026-06-19T19:33:12.269Z)
Latitude
-0.00002°
Longitude
105.26517°
Altitude
914.641 km
Speed
7.39 km/s
True Right ascension
20h 26m 25s
True Declination
0° 00' 00"
Sunlit
Object was in full shadow at epoch
Visualization orbit readout
Latitude
Unknown
Longitude
Unknown
Altitude
Unknown
Speed
Unknown
Apparent Right ascension
Unknown
Apparent Declination
Unknown
Sunlit
N/A
Visualization observer readout
Local Sidereal Time
05:34:32
Azimuth
Unknown
Elevation
Unknown
Doppler factor
Unknown
Orbital elements
Apogee altitude
960.186 km
Perigee altitude
840.967 km
Semi-major axis
7,278.714 km
Eccentricity
0.00819
Inclination
66.6802°
RAAN
306.6046°
Arg. of periapsis
259.6088°
True anomaly
100.49927°
Mean anomaly
99.5755°
Eccentric anomaly
100.03755°
Mean motion
3.49511 °/min
Orbital period
103 mins
BSTAR
0.00034514
Loading maneuver chart data...
Computing Atmospheric mass density...

Documentation

Showing up to 5 results
|